Regional Weather Roundup
Issued by NWS

Home | Current Version | Previous Version | Text Only | Print | Product List | Glossary Off
Versions: 1 2 3 4 5 6 7 8 9 10 11 12 13 14 15 16 17 18 19 20 21 22 23 24 25 26 27 28 29 30 31 32 33 34 35 36 37 38 39 40 41 42 43 44 45 46 47 48 49 50

000
ASUS43 KOAX 271410
RWRNE

WEATHER ROUNDUP FOR NEBRASKA
NATIONAL WEATHER SERVICE OMAHA NE
900 AM CDT THU AUG 27 2015

NOTES: SATELLITE DATA IS BEING USED TO AUGMENT CLOUD COVER ABOVE
       12000 FEET.
       "FAIR" INDICATES FEW OR NO CLOUDS BELOW 12,000 FEET WITH NO
       SIGNIFICANT WEATHER AND/OR OBSTRUCTIONS TO VISIBILITY.

  * THESE STATIONS DO NOT REPORT WEATHER SUCH AS RAIN...SNOW OR FOG.

NEZ001>004-019>022-054>056-271500-
NEBRASKA PANHANDLE

CITY           SKY/WX    TMP DP  RH WIND       PRES   REMARKS
SCOTTSBLUFF    CLOUDY    68  63  84 NW10      30.05R
ALLIANCE       CLOUDY    68  63  84 NW12      30.00R
CHADRON        CLOUDY    68  58  70 CALM      30.04R
KIMBALL        PTSUNNY   67  52  59 NW10      30.08R
SIDNEY         PTSUNNY   69  64  84 W15       30.04R
$$

NEZ057>060-069>072-079>082-271500-
SOUTHWEST NEBRASKA

CITY           SKY/WX    TMP DP  RH WIND       PRES   REMARKS
NORTH PLATTE   PTSUNNY   67  62  84 E6        29.94F
IMPERIAL       CLOUDY    67  54  63 CALM      29.94F
LEXINGTON      MOSUNNY   69  67  93 E8        29.95R
MCCOOK         CLOUDY    73  58  59 CALM      29.92F
OGALLALA       CLOUDY    62  55  77 CALM      29.94F
$$

NEZ005>010-023>029-035>040-094-271500-
NORTH CENTRAL NEBRASKA

CITY           SKY/WX    TMP DP  RH WIND       PRES   REMARKS
VALENTINE      CLOUDY    67  64  90 E13       29.95R
AINSWORTH      CLOUDY    67  66  97 SE10      29.95S FOG
BROKEN BOW     FOG       69  67  93 E9        29.96F VSB 1
O`NEILL        CLOUDY    69  67  94 SE9       29.95F
ORD            CLOUDY    68  65  90 SE10      29.95F
THEDFORD       CLOUDY    68  67  94 SE14      29.95F FOG
$$

NEZ041-046>049-061>064-073>077-083>087-271500-
SOUTH CENTRAL NEBRASKA

CITY           SKY/WX    TMP DP  RH WIND       PRES   REMARKS
GRAND ISLAND   CLOUDY    69  66  90 E9        29.98F
AURORA         CLOUDY    68  67  96 SE10      29.97F
HASTINGS       CLOUDY    71  68  90 SE7       29.96S FOG
HEBRON         PTSUNNY   74  67  79 SE6       29.97S
HOLDREGE       PTSUNNY   69  65  87 S7        29.94S
KEARNEY *      CLOUDY    70  66  88 E8        29.96S
YORK           PTSUNNY   68  64  88 SE9       29.98F
$$

NEZ011>018-030>034-042>045-271500-
NORTHEAST NEBRASKA

CITY           SKY/WX    TMP DP  RH WIND       PRES   REMARKS
NORFOLK        CLOUDY    68  64  87 E7        29.99R
ALBION         CLOUDY    69  63  81 SE9       29.97F
BLAIR          CLOUDY    65  58  80 SE8       30.01R
COLUMBUS *     CLOUDY    68  61  77 SE6       29.99F
FREMONT        CLOUDY    69  62  79 N3        30.03R
TEKAMAH        CLOUDY    64  61  90 CALM      30.04R
WAYNE          CLOUDY    65  62  91 CALM      30.02R
$$

NEZ050>053-065>068-078-088>093-271500-
SOUTHEAST NEBRASKA

CITY           SKY/WX    TMP DP  RH WIND       PRES   REMARKS
LINCOLN        PTSUNNY   67  62  84 SE13      30.01F
OMAHA EPPLEY   CLOUDY    66  58  75 SE20      30.00F
BEATRICE       MOSUNNY   68  61  77 E6        30.02R
FALLS CITY     MOSUNNY   67  59  75 SE9       30.03S
NEBRASKA CITY  CLOUDY    64  58  82 E5        30.05F
PLATTSMOUTH    CLOUDY    64  59  85 SE17G28   30.00F
$$

NEZ044-045-051>053-067-271500-
OMAHA AREA

CITY           SKY/WX    TMP DP  RH WIND       PRES   REMARKS
OMAHA EPPLEY   CLOUDY    66  58  75 SE20      30.00F
BLAIR          CLOUDY    65  58  80 SE8       30.01R
FREMONT        CLOUDY    69  62  79 N3        30.03R
MILLARD        CLOUDY    67  63  88 S3        30.01R
OFFUTT AFB     LGT RAIN  64  61  88 SE16G26   29.99F
PLATTSMOUTH    CLOUDY    64  59  85 SE17G28   30.00F
WAHOO          FAIR      67  64  87 S12G17    29.99F
$$




USA.gov is the U.S. government's official web portal to all federal, state and local government web resources and services.